TimeCET,TemperatureF,Dew PointF,Humidity,Sea Level PressureIn,VisibilityMPH,Wind Direction,Wind SpeedMPH,Gust SpeedMPH,PrecipitationIn,Events,Conditions,WindDirDegrees,DateUTC
12:00 AM,26.6,8.6,47,29.80,-9999.0,ENE,29.9,44.9,N/A,,Clear,70,2013-03-25 23:00:00
1:00 AM,26.6,6.8,43,29.80,-9999.0,ENE,28.8,40.3,N/A,,Clear,70,2013-03-26 00:00:00
2:00 AM,26.6,6.8,43,29.80,-9999.0,ENE,27.6,36.8,N/A,,Clear,70,2013-03-26 01:00:00
3:00 AM,26.6,5.0,40,29.77,-9999.0,ENE,26.5,40.3,N/A,,Clear,70,2013-03-26 02:00:00
4:00 AM,26.6,6.8,43,29.77,6.2,ENE,28.8,-,N/A,,Overcast,70,2013-03-26 03:00:00
5:00 AM,24.8,6.8,46,29.77,-9999.0,ENE,27.6,-,N/A,,Clear,60,2013-03-26 04:00:00
6:00 AM,24.8,6.8,46,29.77,6.2,ENE,25.3,-,N/A,,Overcast,70,2013-03-26 05:00:00
7:00 AM,24.8,6.8,46,29.77,-9999.0,ENE,26.5,40.3,N/A,,Clear,70,2013-03-26 06:00:00
8:00 AM,26.6,8.6,47,29.74,6.2,ENE,28.8,40.3,N/A,,Overcast,70,2013-03-26 07:00:00
9:00 AM,26.6,10.4,51,29.74,6.2,ENE,26.5,40.3,N/A,,Overcast,70,2013-03-26 08:00:00
10:00 AM,28.4,10.4,47,29.74,-9999.0,ENE,29.9,42.6,N/A,,Clear,70,2013-03-26 09:00:00
11:00 AM,28.4,10.4,47,29.74,-9999.0,ENE,29.9,42.6,N/A,,Clear,70,2013-03-26 10:00:00
12:00 PM,30.2,12.2,47,29.74,6.2,ENE,29.9,42.6,N/A,,Overcast,70,2013-03-26 11:00:00
1:00 PM,30.2,12.2,47,29.74,6.2,ENE,29.9,43.7,N/A,,Overcast,70,2013-03-26 12:00:00
2:00 PM,30.2,12.2,47,29.74,6.2,ENE,32.2,-,N/A,,Overcast,70,2013-03-26 13:00:00
3:00 PM,30.2,12.2,47,29.74,6.2,ENE,28.8,-,N/A,,Overcast,70,2013-03-26 14:00:00
3:19 PM,30.2,12.2,47,29.74,6.2,ENE,32.2,46.0,N/A,,Overcast,60,2013-03-26 14:19:00
4:00 PM,30.2,12.2,47,29.77,6.2,ENE,29.9,42.6,N/A,,Overcast,70,2013-03-26 15:00:00
5:00 PM,28.4,12.2,51,29.77,-9999.0,ENE,25.3,38.0,N/A,,Clear,70,2013-03-26 16:00:00
6:00 PM,28.4,14.0,55,29.80,6.2,ENE,21.9,34.5,N/A,,Overcast,70,2013-03-26 17:00:00
7:00 PM,26.6,14.0,59,29.80,6.2,ENE,27.6,-,N/A,,Overcast,70,2013-03-26 18:00:00
7:07 PM,26.6,14.0,59,29.80,6.2,ENE,25.3,36.8,N/A,,Overcast,60,2013-03-26 18:07:00
8:00 PM,26.6,14.0,59,29.80,6.2,ENE,25.3,-,N/A,,Overcast,70,2013-03-26 19:00:00
8:16 PM,26.6,14.0,59,29.80,6.2,ENE,25.3,35.7,N/A,,Overcast,70,2013-03-26 19:16:00
9:00 PM,26.6,14.0,59,29.80,-9999.0,ENE,27.6,38.0,N/A,,Clear,60,2013-03-26 20:00:00
10:00 PM,26.6,14.0,59,29.80,-9999.0,ENE,25.3,-,N/A,,Clear,70,2013-03-26 21:00:00
10:15 PM,26.6,14.0,59,29.80,-9999.0,ENE,21.9,33.4,N/A,,Clear,70,2013-03-26 21:15:00
11:00 PM,26.6,14.0,59,29.80,6.2,ENE,21.9,-,N/A,,Overcast,70,2013-03-26 22:00:00
11:01 PM,26.6,14.0,59,29.80,6.2,ENE,23.0,34.5,N/A,,Overcast,70,2013-03-26 22:01:00